period_start,C,m1,H,J0,J1,J2,J3,J4,J5,JA,JB,JC,JD,JJ,JK,JN,#
2015-04-23 00:03:57,0.07,3.28,0.00,23.29,27.02,29.91,4.78,26.73,1021.01,2032.58,2294.64,2492.96,2701.08,350.00,348.76,22.06,0000 0000 0000 0000 000000
2015-04-23 00:08:59,0.10,3.29,0.00,23.57,27.02,29.86,4.78,26.72,1021.00,2032.64,2293.98,2492.26,2700.85,349.47,348.06,22.09,0000 0000 0000 0000 000000
2015-04-23 00:14:00,0.11,3.29,0.00,23.68,27.02,29.86,4.73,26.77,1020.76,2032.72,2293.07,2491.91,2700.06,350.09,348.47,22.12,0000 0000 0000 0000 000000
2015-04-23 00:19:02,0.15,3.29,0.00,23.71,27.02,29.86,4.78,26.81,1020.80,2032.82,2292.15,2491.09,2699.37,349.82,348.10,22.15,0000 0000 0000 0000 000000
2015-04-23 00:24:03,0.17,3.30,0.00,23.74,27.02,29.87,4.71,26.77,1020.93,2032.79,2290.81,2490.21,2698.33,349.94,348.51,22.18,0000 0000 0000 0000 000000
2015-04-23 00:29:04,0.22,3.31,0.00,23.75,27.02,29.88,4.79,26.77,1020.96,2032.85,2289.18,2489.01,2697.01,349.52,347.82,22.21,0000 0000 0000 0000 000000
2015-04-23 00:34:06,0.13,3.31,0.00,23.65,27.03,29.87,4.83,26.77,1021.01,2032.82,2287.85,2488.06,2695.97,350.74,349.27,22.24,0000 0000 0000 0000 000000
2015-04-23 00:39:07,0.05,3.31,0.00,23.48,27.04,29.92,4.80,26.91,1021.01,2032.29,2286.63,2487.13,2695.05,350.32,348.96,22.27,0000 0000 0000 0000 000000
2015-04-23 00:44:08,0.10,3.31,0.00,23.37,27.04,29.94,4.87,26.87,1021.01,2032.20,2285.93,2486.66,2694.19,350.30,349.10,22.29,0000 0000 0000 0000 000000
2015-04-23 00:49:09,0.08,3.32,0.00,23.29,27.04,29.96,4.82,26.87,1021.01,2032.21,2285.08,2486.02,2693.91,350.36,349.23,22.32,0000 0000 0000 0000 000000
2015-04-23 00:54:11,0.13,3.32,0.00,23.37,27.03,29.90,4.76,26.86,1021.01,2032.32,2284.39,2485.78,2693.11,349.31,348.13,22.35,0000 0000 0000 0000 000000
2015-04-23 00:59:12,0.05,3.32,0.00,23.63,27.04,29.86,4.78,26.89,1021.03,2032.27,2283.90,2485.05,2692.78,349.61,348.24,22.38,0000 0000 0000 0000 000000
2015-04-23 01:04:14,0.07,3.33,0.00,23.74,27.05,29.88,4.84,26.81,1021.12,2032.26,2283.11,2484.78,2692.05,350.19,348.34,22.41,0000 0000 0000 0000 000000
2015-04-23 01:09:15,0.13,3.33,0.00,23.75,27.05,29.88,4.81,26.88,1021.25,2032.34,2282.43,2484.05,2691.60,350.54,348.93,22.44,0000 0000 0000 0000 000000
2015-04-23 01:14:16,0.10,3.33,0.00,23.58,27.05,29.91,4.77,26.55,1021.19,2032.55,2281.77,2483.85,2691.01,350.15,348.72,22.47,0000 0000 0000 0000 000000
2015-04-23 01:19:17,0.05,3.33,0.00,23.47,27.05,29.94,4.72,26.82,1021.15,2032.25,2280.91,2483.07,2690.28,349.78,348.51,22.50,0000 0000 0000 0000 000000
2015-04-23 01:24:18,0.05,3.34,0.00,23.41,27.05,29.94,4.77,26.80,1021.31,2032.12,2280.06,2482.74,2689.89,350.24,348.98,22.53,0000 0000 0000 0000 000000
2015-04-23 01:29:19,0.15,3.34,0.00,23.36,27.05,29.95,4.83,26.78,1021.39,2032.27,2279.28,2482.06,2689.12,350.74,349.53,22.56,0000 0000 0000 0000 000000
2015-04-23 01:34:20,0.04,3.34,0.00,23.31,27.05,29.91,4.84,26.87,1021.43,2032.17,2278.61,2481.80,2688.66,350.19,349.07,22.59,0000 0000 0000 0000 000000
2015-04-23 01:39:22,0.08,3.34,0.00,23.37,27.05,29.92,4.73,26.84,1021.44,2032.13,2278.00,2481.06,2688.03,349.88,348.75,22.62,0000 0000 0000 0000 000000
2015-04-23 01:44:23,0.07,3.35,0.00,23.65,27.04,29.88,4.71,26.73,1021.45,2032.21,2277.39,2480.98,2687.70,349.33,347.80,22.65,0000 0000 0000 0000 000000
2015-04-23 01:49:24,0.12,3.35,0.00,23.82,27.05,29.86,4.79,26.81,1021.46,2032.35,2276.88,2480.31,2687.04,350.08,348.75,22.68,0000 0000 0000 0000 000000
2015-04-23 01:54:25,0.03,3.35,0.00,23.75,27.05,29.87,4.79,26.82,1021.49,2032.29,2276.07,2480.00,2686.82,349.74,348.23,22.70,0000 0000 0000 0000 000000
2015-04-23 01:59:26,0.12,3.35,0.00,23.59,27.05,29.90,4.75,26.91,1021.50,2032.28,2275.41,2479.49,2686.07,349.35,348.01,22.73,0000 0000 0000 0000 000000
2015-04-23 02:04:28,0.05,3.36,0.00,23.54,27.05,29.90,4.78,26.86,1021.50,2032.14,2274.64,2479.00,2685.59,350.35,349.04,22.76,0000 0000 0000 0000 000000
2015-04-23 02:09:29,0.08,3.36,0.00,23.50,27.05,29.92,4.83,26.92,1021.50,2032.08,2273.96,2478.48,2685.01,349.42,348.36,22.79,0000 0000 0000 0000 000000
2015-04-23 02:14:30,0.11,3.36,0.00,23.47,27.05,29.92,4.82,26.87,1021.50,2032.19,2273.12,2478.01,2684.56,349.65,348.57,22.82,0000 0000 0000 0000 000000
2015-04-23 02:19:32,0.06,3.36,0.00,23.44,27.05,29.93,4.81,26.74,1021.50,2032.21,2272.59,2477.66,2684.00,350.24,349.09,22.85,0000 0000 0000 0000 000000
2015-04-23 02:24:33,0.09,3.37,0.00,23.40,27.05,29.92,4.84,26.84,1021.49,2032.16,2271.86,2477.02,2683.31,350.01,348.85,22.88,0000 0000 0000 0000 000000
2015-04-23 02:29:34,0.08,3.37,0.00,23.40,27.05,29.93,4.80,26.80,1021.48,2032.12,2271.02,2476.59,2682.91,350.30,349.16,22.91,0000 0000 0000 0000 000000
2015-04-23 02:34:36,0.10,3.37,0.00,23.40,27.05,29.91,4.79,26.73,1021.48,2032.13,2270.23,2476.02,2682.13,349.77,348.75,22.94,0000 0000 0000 0000 000000
2015-04-23 02:39:37,0.08,3.37,0.00,23.39,27.05,29.90,4.84,26.89,1021.48,2032.11,2269.62,2475.71,2681.79,350.08,349.10,22.97,0000 0000 0000 0000 000000
2015-04-23 02:44:38,0.14,3.38,0.00,23.40,27.04,29.89,4.78,26.77,1021.49,2032.13,2268.41,2474.97,2680.95,350.74,349.66,23.00,0000 0000 0000 0000 000000
2015-04-23 02:49:39,0.13,3.38,0.00,23.53,27.03,29.87,4.80,26.73,1021.50,2032.20,2267.57,2474.19,2680.09,350.30,349.25,23.03,0000 0000 0000 0000 000000
2015-04-23 02:54:40,0.05,3.38,0.00,23.81,27.03,29.83,4.78,26.82,1021.50,2032.11,2266.90,2473.87,2679.64,350.06,348.51,23.06,0000 0000 0000 0000 000000
2015-04-23 02:59:42,0.10,3.39,0.00,23.88,27.04,29.84,4.84,26.94,1021.50,2032.15,2266.10,2473.11,2679.02,350.67,349.04,23.09,0000 0000 0000 0000 000000
2015-04-23 03:04:43,0.07,3.39,0.00,23.80,27.05,29.85,4.72,26.83,1021.50,2032.10,2265.52,2472.97,2678.55,349.40,348.00,23.11,0000 0000 0000 0000 000000
2015-04-23 03:09:44,0.10,3.39,0.00,23.70,27.05,29.82,4.75,26.80,1021.50,2032.09,2264.77,2472.31,2678.00,350.12,348.55,23.14,0000 0000 0000 0000 000000
2015-04-23 03:14:45,0.05,3.39,0.00,23.68,27.05,29.88,4.74,26.87,1021.50,2032.05,2264.03,2471.99,2677.43,349.67,348.28,23.17,0000 0000 0000 0000 000000
2015-04-23 03:19:47,0.10,3.40,0.00,23.67,27.05,29.91,4.78,26.82,1021.50,2032.05,2263.36,2471.44,2676.98,350.02,348.52,23.20,0000 0000 0000 0000 000000
2015-04-23 03:24:48,0.06,3.40,0.00,23.66,27.05,29.93,4.88,26.77,1021.50,2032.05,2262.83,2471.01,2676.35,350.91,349.46,23.23,0000 0000 0000 0000 000000
2015-04-23 03:29:50,0.08,3.40,0.00,23.63,27.05,29.92,4.81,26.76,1021.50,2032.03,2262.04,2470.59,2675.98,350.02,348.62,23.26,0000 0000 0000 0000 000000
2015-04-23 03:34:51,0.10,3.40,0.00,23.62,27.05,29.92,4.84,26.92,1021.50,2032.04,2261.23,2470.02,2675.26,350.53,349.13,23.29,0000 0000 0000 0000 000000
2015-04-23 03:39:52,0.06,3.40,0.00,23.62,27.05,29.92,4.85,26.72,1021.50,2032.04,2260.64,2469.76,2674.95,350.39,349.18,23.32,0000 0000 0000 0000 000000
2015-04-23 03:44:53,0.10,3.41,0.00,23.62,27.05,29.92,4.71,26.69,1021.52,2032.08,2259.94,2469.07,2674.26,349.73,348.43,23.35,0000 0000 0000 0000 000000
2015-04-23 03:49:54,0.12,3.41,0.00,23.60,27.05,29.92,4.77,26.67,1021.52,2032.05,2258.98,2468.64,2673.63,350.66,349.18,23.38,0000 0000 0000 0000 000000
2015-04-23 03:54:56,0.13,3.41,0.00,23.62,27.05,29.91,4.78,26.77,1021.52,2032.09,2257.80,2467.87,2672.83,349.41,347.98,23.41,0000 0000 0000 0000 000000
2015-04-23 03:59:57,0.12,3.42,0.00,23.62,27.05,29.91,4.82,26.70,1021.50,2032.07,2256.81,2467.07,2672.04,349.99,348.36,23.44,0000 0000 0000 0000 000000
2015-04-23 04:04:58,0.12,3.42,0.00,23.62,27.05,29.91,4.82,26.70,1021.51,2032.06,2255.97,2466.50,2671.30,350.34,348.94,23.47,0000 0000 0000 0000 000000
2015-04-23 04:10:00,0.07,3.43,0.00,23.63,27.05,29.91,4.71,26.62,1021.50,2032.11,2255.12,2466.00,2670.83,349.76,348.29,23.50,0000 0000 0000 0000 000000
2015-04-23 04:15:01,0.15,3.43,0.00,23.65,27.05,29.89,4.82,26.77,1021.50,2032.20,2254.26,2465.36,2670.05,350.32,349.00,23.52,0000 0000 0000 0000 000000
2015-04-23 04:20:02,0.10,3.43,0.00,23.65,27.05,29.89,4.84,26.82,1021.51,2032.34,2253.47,2464.98,2669.47,350.15,348.77,23.55,0000 0000 0000 0000 000000
2015-04-23 04:25:03,0.10,3.44,0.00,23.64,27.05,29.89,4.84,26.74,1021.51,2032.31,2252.75,2464.24,2668.95,350.22,349.10,23.58,0000 0000 0000 0000 000000
2015-04-23 04:30:04,0.08,3.44,0.00,23.67,27.05,29.90,4.74,26.73,1021.52,2032.38,2252.01,2463.98,2668.18,349.57,348.09,23.61,0000 0000 0000 0000 000000
2015-04-23 04:35:06,0.07,3.44,0.00,23.67,27.05,29.90,4.79,26.74,1021.54,2032.19,2251.23,2463.29,2667.87,350.20,348.78,23.64,0000 0000 0000 0000 000000
2015-04-23 04:40:07,0.07,3.44,0.00,23.67,27.05,29.89,4.82,26.79,1021.56,2032.18,2250.63,2462.98,2667.09,350.17,348.74,23.67,0000 0000 0000 0000 000000
2015-04-23 04:45:09,0.08,3.45,0.00,23.69,27.05,29.89,4.79,26.69,1021.55,2032.24,2249.99,2462.35,2666.92,349.90,348.40,23.70,0000 0000 0000 0000 000000
2015-04-23 04:50:10,0.09,3.45,0.00,23.72,27.05,29.88,4.77,26.75,1021.54,2032.25,2249.25,2462.00,2666.14,349.48,347.98,23.73,0000 0000 0000 0000 000000
2015-04-23 04:55:12,0.08,3.45,0.00,23.72,27.05,29.89,4.81,26.73,1021.57,2032.14,2248.68,2461.49,2665.85,350.69,349.07,23.76,0000 0000 0000 0000 000000
2015-04-23 05:00:13,0.04,3.45,0.00,23.72,27.05,29.89,4.81,26.81,1021.54,2032.06,2247.97,2461.00,2665.06,349.63,348.27,23.79,0000 0000 0000 0000 000000
2015-04-23 05:05:14,0.13,3.45,0.00,23.73,27.05,29.88,4.77,26.76,1021.52,2032.10,2247.17,2460.52,2664.76,350.09,348.72,23.82,0000 0000 0000 0000 000000
2015-04-23 05:10:15,0.08,3.46,0.00,23.75,27.05,29.89,4.75,26.88,1021.54,2032.18,2246.60,2460.02,2664.04,349.24,347.86,23.85,0000 0000 0000 0000 000000
2015-04-23 05:15:17,0.06,3.46,0.00,23.75,27.05,29.89,4.82,26.78,1021.54,2032.12,2245.91,2459.64,2663.69,350.10,348.52,23.88,0000 0000 0000 0000 000000
2015-04-23 05:20:18,0.10,3.46,0.00,23.75,27.05,29.90,4.79,26.80,1021.56,2032.15,2245.08,2459.02,2663.03,349.91,348.45,23.91,0000 0000 0000 0000 000000
2015-04-23 05:25:19,0.11,3.47,0.00,23.76,27.05,29.90,4.78,26.86,1021.71,2032.11,2244.28,2458.56,2662.45,349.95,348.55,23.93,0000 0000 0000 0000 000000
2015-04-23 05:30:21,0.05,3.47,0.00,23.77,27.05,29.90,4.73,26.75,1021.63,2032.11,2243.62,2458.02,2661.99,349.88,348.33,23.96,0000 0000 0000 0000 000000
2015-04-23 05:35:22,0.10,3.47,0.00,23.75,27.05,29.89,4.75,26.73,1021.60,2032.04,2242.82,2457.60,2661.20,349.91,348.31,23.99,0000 0000 0000 0000 000000
2015-04-23 05:40:23,0.06,3.47,0.00,23.77,27.05,29.90,4.82,26.80,1021.60,2032.04,2242.04,2457.01,2660.90,350.31,348.78,24.02,0000 0000 0000 0000 000000
2015-04-23 05:45:24,0.12,3.48,0.00,23.80,27.06,29.88,4.81,26.79,1021.69,2032.03,2241.40,2456.59,2660.11,350.14,348.54,24.05,0000 0000 0000 0000 000000
2015-04-23 05:50:26,0.06,3.48,0.00,23.80,27.06,29.88,4.82,26.82,1021.78,2032.06,2240.76,2456.02,2659.86,350.61,349.10,24.08,0000 0000 0000 0000 000000
2015-04-23 05:55:28,0.09,3.48,0.00,23.80,27.07,29.88,4.85,26.71,1021.94,2032.09,2240.03,2455.76,2659.06,350.24,348.74,24.11,0000 0000 0000 0000 000000
2015-04-23 06:00:29,0.10,3.48,0.00,23.81,27.07,29.88,4.86,26.79,1021.96,2032.12,2239.35,2455.08,2658.74,350.41,348.91,24.14,0000 0000 0000 0000 000000
2015-04-23 06:05:30,0.06,3.49,0.00,23.83,27.07,29.90,4.86,26.68,1021.97,2032.08,2238.78,2454.70,2658.03,350.75,349.14,24.17,0000 0000 0000 0000 000000
2015-04-23 06:10:31,0.09,3.49,0.00,23.84,27.07,29.90,4.84,26.69,1021.94,2032.03,2238.04,2454.04,2657.39,350.08,348.48,24.20,0000 0000 0000 0000 000000
2015-04-23 06:15:32,0.07,3.49,0.00,23.82,27.07,29.89,4.83,26.85,1021.84,2032.05,2237.28,2453.74,2656.98,350.17,348.80,24.23,0000 0000 0000 0000 000000
2015-04-23 06:20:34,0.12,3.49,0.00,23.83,27.07,29.91,4.79,26.88,1021.91,2032.04,2236.51,2453.04,2656.21,349.92,348.42,24.26,0000 0000 0000 0000 000000
2015-04-23 06:25:35,0.05,3.50,0.00,23.85,27.08,29.93,4.85,26.72,1021.95,2032.04,2235.91,2452.67,2655.97,350.22,348.76,24.29,0000 0000 0000 0000 000000
2015-04-23 06:30:36,0.10,3.50,0.00,23.87,27.09,29.92,4.83,26.84,1021.99,2032.01,2235.08,2452.01,2655.16,350.32,348.84,24.32,0000 0000 0000 0000 000000
2015-04-23 06:35:37,0.08,3.50,0.00,23.87,27.10,29.90,4.78,26.78,1021.98,2032.03,2234.46,2451.72,2654.82,349.46,348.00,24.34,0000 0000 0000 0000 000000
2015-04-23 06:40:39,0.08,3.51,0.00,23.88,27.10,29.93,4.75,26.67,1021.90,2032.01,2233.82,2451.03,2654.04,350.39,348.91,24.37,0000 0000 0000 0000 000000
2015-04-23 06:45:40,0.03,3.51,0.00,23.91,27.10,29.93,4.83,26.69,1021.90,2032.01,2233.06,2450.93,2653.85,350.18,348.50,24.40,0000 0000 0000 0000 000000
2015-04-23 06:50:41,0.14,3.51,0.00,23.92,27.10,29.93,4.73,26.75,1021.92,2032.01,2232.28,2450.11,2653.07,349.84,348.16,24.43,0000 0000 0000 0000 000000
2015-04-23 06:55:43,0.06,3.51,0.00,23.92,27.10,29.94,4.81,26.62,1021.91,2032.01,2231.70,2449.88,2652.71,349.90,348.43,24.46,0000 0000 0000 0000 000000
2015-04-23 07:00:44,0.09,3.52,0.00,23.93,27.10,29.93,4.75,26.58,1021.93,2032.00,2230.99,2449.10,2652.03,349.64,348.04,24.49,0000 0000 0000 0000 000000
2015-04-23 07:05:45,0.09,3.52,0.00,23.96,27.11,29.92,4.76,26.73,1021.85,2032.00,2230.16,2448.86,2651.56,350.31,348.64,24.52,0000 0000 0000 0000 000000
2015-04-23 07:10:46,0.10,3.52,0.00,23.97,27.12,29.90,4.75,26.64,1021.94,2032.02,2229.51,2448.13,2651.01,349.43,347.96,24.55,0000 0000 0000 0000 000000
2015-04-23 07:15:47,0.06,3.52,0.00,23.97,27.12,29.90,4.80,26.66,1021.98,2032.00,2228.82,2447.93,2650.42,349.36,347.87,24.58,0000 0000 0000 0000 000000
2015-04-23 07:20:48,0.10,3.53,0.00,23.98,27.12,29.91,4.78,26.66,1021.96,2032.01,2228.04,2447.21,2649.99,350.47,348.69,24.61,0000 0000 0000 0000 000000
2015-04-23 07:25:49,0.09,3.53,0.00,24.02,27.12,29.90,4.87,26.69,1021.91,2032.02,2227.31,2446.96,2649.46,350.42,348.71,24.64,0000 0000 0000 0000 000000
2015-04-23 07:30:50,0.10,3.53,0.00,24.05,27.12,29.92,4.90,26.77,1021.93,2032.03,2226.63,2446.19,2648.96,350.76,348.97,24.67,0000 0000 0000 0000 000000
2015-04-23 07:35:52,0.06,3.53,0.00,24.07,27.13,29.90,4.71,26.73,1021.89,2032.01,2225.82,2445.92,2648.16,349.70,348.22,24.70,0000 0000 0000 0000 000000
2015-04-23 07:40:53,0.09,3.54,0.00,24.07,27.14,29.90,4.74,26.60,1021.81,2032.01,2225.03,2445.13,2647.94,350.00,348.20,24.73,0000 0000 0000 0000 000000
2015-04-23 07:45:55,0.09,3.54,0.00,24.10,27.15,29.89,4.82,26.63,1021.76,2032.01,2224.37,2444.88,2647.15,350.51,348.64,24.75,0000 0000 0000 0000 000000
2015-04-23 07:50:56,0.12,3.54,0.00,24.12,27.15,29.89,4.72,26.57,1021.87,2032.00,2223.61,2444.08,2646.57,349.93,348.19,24.78,0000 0000 0000 0000 000000
2015-04-23 07:55:57,0.06,3.54,0.00,24.14,27.15,29.91,4.71,26.73,1021.87,2032.00,2222.90,2443.80,2646.00,349.91,347.91,24.81,0000 0000 0000 0000 000000
2015-04-23 08:00:58,0.12,3.55,0.00,24.17,27.15,29.89,4.79,26.73,1021.90,2032.00,2222.09,2443.07,2645.35,350.21,348.32,24.84,0000 0000 0000 0000 000000
2015-04-23 08:06:00,0.07,3.55,0.00,24.18,27.17,29.89,4.83,26.69,1021.97,2032.01,2221.38,2442.79,2644.93,350.45,348.60,24.87,0000 0000 0000 0000 000000
2015-04-23 08:11:01,0.10,3.55,0.00,24.21,27.17,29.88,4.75,26.73,1021.97,2032.00,2220.80,2442.06,2644.15,349.92,348.03,24.90,0000 0000 0000 0000 000000
2015-04-23 08:16:03,0.12,3.56,0.00,24.26,27.17,29.87,4.80,26.71,1021.96,2032.00,2219.80,2441.65,2643.69,350.08,348.20,24.93,0000 0000 0000 0000 000000
2015-04-23 08:21:04,0.11,3.56,0.00,24.27,27.18,29.87,4.81,26.71,1021.98,2032.00,2218.76,2440.93,2642.84,350.19,348.19,24.96,0000 0000 0000 0000 000000
2015-04-23 08:26:05,0.10,3.56,0.00,24.27,27.20,29.87,4.72,26.62,1021.98,2032.00,2218.02,2440.12,2642.07,349.73,347.73,24.99,0000 0000 0000 0000 000000
2015-04-23 08:31:07,0.07,3.57,0.00,24.26,27.20,29.89,4.75,26.61,1021.99,2032.00,2217.25,2439.94,2641.73,350.20,348.31,25.02,0000 0000 0000 0000 000000
2015-04-23 08:36:08,0.12,3.57,0.00,24.27,27.20,29.91,4.80,26.82,1021.99,2032.00,2216.62,2439.16,2641.02,349.76,347.85,25.05,0000 0000 0000 0000 000000
2015-04-23 08:41:09,0.07,3.57,0.00,24.29,27.21,29.93,4.77,26.64,1021.99,2032.00,2215.94,2438.83,2640.51,349.89,347.93,25.08,0000 0000 0000 0000 000000
2015-04-23 08:46:11,0.10,3.58,0.00,24.28,27.22,29.94,4.89,26.71,1021.99,2032.00,2215.10,2438.07,2639.99,350.63,348.67,25.11,0000 0000 0000 0000 000000
2015-04-23 08:51:12,0.09,3.58,0.00,24.27,27.22,29.96,4.77,26.66,1022.00,2032.00,2214.44,2437.86,2639.41,350.29,348.19,25.14,0000 0000 0000 0000 000000
2015-04-23 08:56:13,0.09,3.58,0.00,24.27,27.23,29.97,4.76,26.56,1022.00,2032.00,2213.74,2437.07,2638.90,350.20,348.35,25.16,0000 0000 0000 0000 000000
2015-04-23 09:01:15,0.10,3.58,0.00,24.27,27.25,29.98,4.80,26.70,1022.01,2032.00,2212.96,2436.68,2638.09,350.07,347.99,25.19,0000 0000 0000 0000 000000
2015-04-23 09:06:16,0.10,3.59,0.00,24.28,27.25,30.00,4.76,26.70,1022.04,2031.99,2212.10,2436.02,2637.51,349.99,348.04,25.22,0000 0000 0000 0000 000000
2015-04-23 09:11:17,0.09,3.59,0.00,24.27,27.25,30.00,4.85,26.76,1022.12,2031.99,2211.47,2435.61,2637.00,349.97,348.27,25.25,0000 0000 0000 0000 000000
2015-04-23 09:16:19,0.08,3.59,0.00,24.26,27.25,30.02,4.78,26.74,1022.27,2031.97,2210.81,2435.02,2636.22,349.93,347.99,25.28,0000 0000 0000 0000 000000
2015-04-23 09:21:20,0.10,3.60,0.00,24.24,27.25,30.01,4.75,26.79,1022.34,2031.96,2210.01,2434.40,2635.79,350.16,348.23,25.31,0000 0000 0000 0000 000000
2015-04-23 09:26:21,0.08,3.60,0.00,24.21,27.26,30.02,4.80,26.75,1022.34,2031.93,2209.17,2433.95,2635.04,349.89,348.13,25.34,0000 0000 0000 0000 000000
2015-04-23 09:31:23,0.13,3.60,0.00,24.19,27.27,30.01,4.82,26.93,1022.38,2031.91,2208.44,2433.19,2634.43,350.02,348.29,25.37,0000 0000 0000 0000 000000
2015-04-23 09:36:24,0.06,3.60,0.00,24.17,27.27,30.03,4.75,26.76,1022.42,2031.85,2207.66,2432.84,2633.89,350.26,348.64,25.40,0000 0000 0000 0000 000000
2015-04-23 09:41:25,0.10,3.61,0.00,24.17,27.27,30.03,4.78,26.68,1022.46,2031.77,2206.91,2432.07,2633.10,349.83,348.09,25.43,0000 0000 0000 0000 000000
2015-04-23 09:46:26,0.08,3.61,0.00,24.16,27.27,30.03,4.73,26.75,1022.33,2031.90,2206.08,2431.93,2632.82,349.82,347.95,25.46,0000 0000 0000 0000 000000
2015-04-23 09:51:27,0.12,3.61,0.00,24.15,27.27,30.05,4.79,26.67,1022.05,2031.90,2205.39,2431.17,2632.06,349.88,348.02,25.49,0000 0000 0000 0000 000000
2015-04-23 09:56:29,0.03,3.61,0.00,24.15,27.27,30.05,4.80,26.73,1022.01,2031.89,2204.89,2430.99,2631.73,350.19,348.47,25.52,0000 0000 0000 0000 000000
2015-04-23 10:01:30,0.13,3.62,0.00,24.15,27.27,30.05,4.77,26.77,1022.00,2031.92,2204.07,2430.37,2631.05,349.54,347.83,25.55,0000 0000 0000 0000 000000
2015-04-23 10:06:31,0.04,3.62,0.00,24.17,27.27,29.98,4.78,26.66,1022.00,2031.79,2203.40,2429.98,2630.59,350.32,348.35,25.58,0000 0000 0000 0000 000000
2015-04-23 10:11:33,0.10,3.62,0.00,24.17,27.27,29.97,4.75,26.73,1022.00,2031.70,2202.70,2429.28,2630.01,349.81,348.07,25.60,0000 0000 0000 0000 000000
2015-04-23 10:16:34,0.06,3.62,0.00,24.17,27.27,29.97,4.75,26.75,1022.00,2031.81,2202.03,2429.01,2629.61,349.44,347.60,25.63,0000 0000 0000 0000 000000
2015-04-23 10:21:35,0.09,3.63,0.00,24.15,27.27,29.98,4.67,26.71,1022.02,2031.81,2201.41,2428.66,2629.03,349.16,347.44,25.66,0000 0000 0000 0000 000000
2015-04-23 10:26:36,0.06,3.63,0.00,24.15,27.27,29.97,4.83,26.77,1022.01,2031.74,2200.98,2428.04,2628.78,350.89,348.55,25.69,0000 0000 0000 0000 000000
2015-04-23 10:31:38,0.08,3.63,0.00,24.16,27.27,29.96,4.76,26.82,1021.99,2031.86,2200.23,2427.91,2628.07,349.69,347.84,25.72,0000 0000 0000 0000 000000
2015-04-23 10:36:39,0.10,3.63,0.00,24.17,27.27,29.95,4.73,26.85,1021.99,2031.78,2199.61,2427.16,2627.77,349.88,347.89,25.75,0000 0000 0000 0000 000000
2015-04-23 10:41:40,0.03,3.64,0.00,24.17,27.27,29.94,4.85,26.78,1021.99,2031.83,2199.00,2426.99,2627.06,350.64,348.79,25.78,0000 0000 0000 0000 000000
2015-04-23 10:46:41,0.10,3.64,0.00,24.17,27.27,29.94,4.77,26.88,1021.99,2031.83,2198.27,2426.32,2626.89,349.74,347.93,25.81,0000 0000 0000 0000 000000
2015-04-23 10:51:42,0.05,3.64,0.00,24.19,27.28,29.94,4.79,26.68,1021.99,2031.76,2197.77,2425.99,2626.10,350.20,348.26,25.84,0000 0000 0000 0000 000000
2015-04-23 10:56:43,0.07,3.64,0.00,24.24,27.28,29.93,4.75,26.77,1021.99,2031.65,2197.03,2425.41,2625.79,349.65,347.71,25.87,0000 0000 0000 0000 000000
2015-04-23 11:01:44,0.11,3.65,0.00,24.33,27.29,29.93,4.73,26.64,1021.99,2031.70,2196.45,2425.01,2625.07,350.25,348.14,25.90,0000 0000 0000 0000 000000
2015-04-23 11:06:45,0.01,3.65,0.00,24.41,27.29,29.94,4.73,26.73,1021.99,2031.60,2195.95,2424.82,2624.91,349.44,347.37,25.93,0000 0000 0000 0000 000000
2015-04-23 11:11:47,0.09,3.65,0.00,24.45,27.30,29.94,4.80,26.64,1021.99,2031.49,2195.11,2424.05,2624.09,349.86,347.81,25.96,0000 0000 0000 0000 000000
2015-04-23 11:16:48,0.01,3.65,0.00,24.47,27.30,29.95,4.80,26.62,1021.98,2031.21,2194.54,2423.87,2623.79,350.25,348.13,25.98,0000 0000 0000 0000 000000
2015-04-23 11:21:50,0.11,3.65,0.00,24.49,27.30,29.97,4.74,26.67,1021.95,2031.18,2193.99,2423.16,2623.07,350.11,348.04,26.01,0000 0000 0000 0000 000000
2015-04-23 11:26:51,0.04,3.65,0.00,24.46,27.30,29.98,4.68,26.57,1021.91,2031.17,2193.30,2422.98,2623.00,349.81,347.50,26.04,0000 0000 0000 0000 000000
2015-04-23 11:31:53,0.08,3.66,0.00,24.41,27.30,30.00,4.81,26.74,1021.88,2031.17,2192.95,2422.51,2622.65,349.85,347.73,26.07,0000 0000 0000 0000 000000
2015-04-23 11:36:54,0.05,3.66,0.00,24.31,27.30,30.02,4.84,26.88,1021.87,2031.09,2192.14,2422.02,2622.01,349.77,347.82,26.10,0000 0000 0000 0000 000000
2015-04-23 11:41:55,0.08,3.66,0.00,24.21,27.30,30.05,4.84,26.65,1021.86,2031.14,2191.67,2421.88,2621.78,350.39,348.24,26.13,0000 0000 0000 0000 000000
2015-04-23 11:46:57,0.08,3.66,0.00,24.11,27.30,30.09,4.78,26.73,1021.76,2031.12,2190.99,2421.11,2621.08,350.38,348.47,26.16,0000 0000 0000 0000 000000
2015-04-23 11:51:58,0.07,3.66,0.00,24.02,27.30,30.13,4.87,26.84,1021.67,2031.04,2190.21,2420.89,2620.65,350.16,348.41,26.19,0000 0000 0000 0000 000000
2015-04-23 11:56:59,0.08,3.67,0.00,23.94,27.28,30.17,4.82,26.82,1021.65,2031.06,2189.92,2420.27,2620.04,350.75,348.82,26.22,0000 0000 0000 0000 000000
2015-04-23 12:02:00,0.06,3.67,0.00,23.89,27.27,30.19,4.73,26.77,1021.71,2031.13,2189.12,2420.01,2619.98,348.99,347.37,26.25,0000 0000 0000 0000 000000
2015-04-23 12:07:02,0.08,3.67,0.00,23.85,27.27,30.17,4.72,26.76,1021.71,2031.13,2188.65,2419.85,2619.35,349.40,348.12,26.28,0000 0000 0000 0000 000000
2015-04-23 12:12:03,0.09,3.67,0.00,23.80,27.27,30.17,4.75,26.81,1021.62,2031.22,2187.96,2419.14,2619.00,349.50,348.09,26.31,0000 0000 0000 0000 000000
2015-04-23 12:17:04,0.09,3.68,0.00,23.75,27.26,30.16,4.77,26.69,1021.68,2031.33,2187.19,2418.99,2618.58,350.08,348.61,26.34,0000 0000 0000 0000 000000
2015-04-23 12:22:05,0.10,3.68,0.00,23.72,27.25,30.16,4.81,26.82,1021.63,2031.56,2186.89,2418.65,2618.04,350.15,348.71,26.37,0000 0000 0000 0000 000000
2015-04-23 12:27:07,0.11,3.68,0.00,23.68,27.25,30.14,4.78,26.67,1021.65,2031.79,2186.15,2418.05,2617.96,349.72,348.23,26.39,0000 0000 0000 0000 000000
2015-04-23 12:32:08,0.07,3.69,0.00,23.64,27.24,30.13,4.78,26.77,1021.75,2031.84,2185.70,2417.97,2617.29,349.78,348.67,26.42,0000 0000 0000 0000 000000
2015-04-23 12:37:09,0.04,3.69,0.00,23.61,27.22,30.12,4.87,26.82,1021.70,2031.61,2185.14,2417.25,2616.64,350.69,349.21,26.45,0000 0000 0000 0000 000000
2015-04-23 12:42:10,0.26,3.69,0.00,23.59,27.22,30.10,4.81,26.73,1021.54,2031.64,2183.68,2416.21,2615.55,350.06,348.83,26.48,0000 0000 0000 0000 000000
2015-04-23 12:47:11,0.10,3.70,0.00,23.56,27.21,30.09,4.82,26.73,1021.52,2031.76,2182.78,2415.63,2614.81,350.47,349.14,26.51,0000 0000 0000 0000 000000
2015-04-23 12:52:13,0.19,3.70,0.00,23.51,27.20,30.07,4.74,26.72,1021.53,2031.86,2181.71,2414.69,2613.79,349.67,348.44,26.54,0000 0000 0000 0000 000000
2015-04-23 12:57:15,0.19,3.71,0.00,23.47,27.20,30.06,4.80,26.78,1021.51,2031.82,2180.31,2413.65,2612.69,349.79,348.65,26.57,0000 0000 0000 0000 000000
2015-04-23 13:02:16,0.11,3.71,0.00,23.46,27.18,30.05,4.81,26.65,1021.50,2031.91,2178.91,2412.98,2612.00,350.16,349.25,26.60,0000 0000 0000 0000 000000